When you browse on this site, cookies collect data to enhance your experience and personalize the content and advertising you see.
Visit our Privacy Policy to learn more. By continuing to use the site, you agree to this use of cookies and data.
  • In Denmark
  • List of Countries
  • For 7 days
  • Water Temperature
  • Weather Map
  • Weather Widgets
  • user-avatar
    Login

    Hourly Weather Etchmiadzin

    Today, 14 November, Thursday

    Time Temperature Precipitation Wind Pressure Humidity
    00:00 +8°C° 0 mm 1 mps 689 mmHg 32%
    01:00 +8°C° 0 mm 1 mps 689 mmHg 34%
    02:00 +7°C° 0 mm 1 mps 689 mmHg 36%
    03:00 +6°C° 0 mm 0 mps 689 mmHg 34%
    04:00 +7°C° 0 mm 1 mps 688 mmHg 36%
    05:00 +7°C° 0 mm 1 mps 688 mmHg 39%
    06:00 +6°C° 0 mm 1 mps 688 mmHg 41%
    07:00 +8°C° 0 mm 1 mps 689 mmHg 36%
    08:00 +9°C° 0 mm 0 mps 689 mmHg 31%
    09:00 +11°C° 0 mm 0 mps 690 mmHg 26%
    10:00 +13°C° 0 mm 1 mps 690 mmHg 24%
    11:00 +14°C° 0 mm 1 mps 690 mmHg 23%
    12:00 +16°C° 0 mm 1 mps 689 mmHg 21%
    13:00 +16°C° 0 mm 1 mps 689 mmHg 20%
    14:00 +16°C° 0 mm 1 mps 689 mmHg 20%
    15:00 +18°C° 0 mm 1 mps 689 mmHg 20%
    16:00 +15°C° 0 mm 1 mps 689 mmHg 23%
    17:00 +12°C° 0 mm 0 mps 689 mmHg 26%
    18:00 +10°C° 0 mm 0 mps 689 mmHg 30%
    19:00 +9°C° 0 mm 0 mps 689 mmHg 31%
    20:00 +10°C° 0 mm 1 mps 690 mmHg 32%
    21:00 +9°C° 0 mm 1 mps 690 mmHg 33%
    22:00 +9°C° 0 mm 1 mps 690 mmHg 34%
    23:00 +7°C° 0 mm 0 mps 690 mmHg 36%

    Tomorrow, 15 November, Friday

    Time Temperature Precipitation Wind Pressure Humidity
    00:00 +7°C° 0 mm 0 mps 690 mmHg 37%
    01:00 +7°C° 0 mm 0 mps 690 mmHg 38%
    02:00 +7°C° 0 mm 1 mps 690 mmHg 40%
    03:00 +7°C° 0 mm 1 mps 690 mmHg 41%
    04:00 +7°C° 0 mm 1 mps 689 mmHg 42%
    05:00 +6°C° 0 mm 1 mps 689 mmHg 43%
    06:00 +6°C° 0 mm 1 mps 689 mmHg 44%
    07:00 +7°C° 0 mm 0 mps 690 mmHg 38%
    08:00 +9°C° 0 mm 0 mps 690 mmHg 32%
    09:00 +11°C° 0 mm 0 mps 691 mmHg 26%
    10:00 +12°C° 0 mm 0 mps 691 mmHg 25%
    11:00 +14°C° 0 mm 1 mps 690 mmHg 24%
    12:00 +15°C° 0 mm 1 mps 690 mmHg 22%
    13:00 +15°C° 0 mm 1 mps 690 mmHg 22%
    14:00 +16°C° 0 mm 1 mps 690 mmHg 21%
    15:00 +16°C° 0 mm 1 mps 690 mmHg 21%
    16:00 +14°C° 0 mm 1 mps 690 mmHg 25%
    17:00 +12°C° 0 mm 1 mps 690 mmHg 28%
    18:00 +10°C° 0 mm 1 mps 689 mmHg 31%
    19:00 +10°C° 0 mm 1 mps 690 mmHg 33%
    20:00 +10°C° 0 mm 1 mps 690 mmHg 35%
    21:00 +8°C° 0 mm 2 mps 690 mmHg 37%
    22:00 +8°C° 0 mm 2 mps 690 mmHg 39%
    23:00 +7°C° 0 mm 2 mps 691 mmHg 42%

    Day after tomorrow, 16 November, Saturday

    Time Temperature Precipitation Wind Pressure Humidity
    00:00 +7°C° 0 mm 2 mps 691 mmHg 45%
    01:00 +7°C° 0 mm 1 mps 691 mmHg 49%
    02:00 +7°C° 0 mm 1 mps 691 mmHg 53%
    03:00 +6°C° 0 mm 1 mps 691 mmHg 57%
    04:00 +5°C° 0 mm 1 mps 690 mmHg 58%
    05:00 +5°C° 0 mm 1 mps 690 mmHg 60%
    06:00 +5°C° 0 mm 1 mps 690 mmHg 61%
    07:00 +6°C° 0 mm 1 mps 691 mmHg 56%
    08:00 +7°C° 0 mm 1 mps 692 mmHg 51%
    09:00 +9°C° 0 mm 1 mps 693 mmHg 46%
    10:00 +9°C° 0 mm 2 mps 692 mmHg 44%
    11:00 +10°C° 0 mm 2 mps 692 mmHg 42%
    12:00 +12°C° 0 mm 2 mps 692 mmHg 40%
    13:00 +12°C° 0 mm 2 mps 692 mmHg 39%
    14:00 +12°C° 0 mm 2 mps 692 mmHg 37%
    15:00 +13°C° 0 mm 1 mps 692 mmHg 36%
    16:00 +11°C° 0 mm 1 mps 692 mmHg 40%
    17:00 +10°C° 0 mm 1 mps 692 mmHg 44%
    18:00 +8°C° 0 mm 1 mps 692 mmHg 48%
    19:00 +8°C° 0 mm 1 mps 693 mmHg 49%
    20:00 +7°C° 0 mm 1 mps 693 mmHg 50%
    21:00 +6°C° 0 mm 2 mps 693 mmHg 51%
    22:00 +6°C° 0 mm 1 mps 693 mmHg 53%
    23:00 +6°C° 0 mm 1 mps 693 mmHg 54%

    17 November, Sunday

    Time Temperature Precipitation Wind Pressure Humidity
    00:00 +5°C° 0 mm 1 mps 693 mmHg 56%
    01:00 +5°C° 0 mm 1 mps 693 mmHg 58%
    02:00 +4°C° 0 mm 1 mps 693 mmHg 60%
    03:00 +4°C° 0 mm 1 mps 692 mmHg 62%
    04:00 +4°C° 0 mm 1 mps 692 mmHg 63%
    05:00 +3°C° 0 mm 1 mps 692 mmHg 65%
    06:00 +3°C° 0 mm 1 mps 692 mmHg 66%
    07:00 +4°C° 0 mm 1 mps 693 mmHg 60%
    08:00 +6°C° 0 mm 1 mps 693 mmHg 53%
    09:00 +7°C° 0 mm 1 mps 693 mmHg 47%
    10:00 +8°C° 0 mm 1 mps 693 mmHg 43%
    11:00 +9°C° 0 mm 1 mps 693 mmHg 39%
    12:00 +10°C° 0 mm 1 mps 692 mmHg 35%
    13:00 +10°C° 0 mm 1 mps 692 mmHg 34%
    14:00 +11°C° 0 mm 1 mps 692 mmHg 33%
    15:00 +11°C° 0 mm 1 mps 692 mmHg 31%
    16:00 +9°C° 0 mm 1 mps 692 mmHg 35%
    17:00 +8°C° 0 mm 1 mps 692 mmHg 39%
    18:00 +6°C° 0 mm 0 mps 692 mmHg 43%
    19:00 +6°C° 0 mm 1 mps 693 mmHg 44%
    20:00 +6°C° 0 mm 1 mps 693 mmHg 45%
    21:00 +5°C° 0 mm 1 mps 693 mmHg 46%
    22:00 +5°C° 0 mm 1 mps 693 mmHg 47%
    23:00 +5°C° 0 mm 1 mps 693 mmHg 48%

    18 November, Monday

    Time Temperature Precipitation Wind Pressure Humidity
    00:00 +4°C° 0 mm 1 mps 693 mmHg 49%
    01:00 +3°C° 0 mm 0 mps 693 mmHg 51%
    02:00 +2°C° 0 mm 0 mps 693 mmHg 52%
    03:00 +2°C° 0 mm 0 mps 692 mmHg 53%
    04:00 +2°C° 0 mm 0 mps 692 mmHg 55%
    05:00 +1°C° 0 mm 0 mps 692 mmHg 56%
    06:00 +1°C° 0 mm 0 mps 692 mmHg 58%
    07:00 +3°C° 0 mm 0 mps 692 mmHg 51%
    08:00 +5°C° 0 mm 1 mps 692 mmHg 45%
    09:00 +7°C° 0 mm 1 mps 692 mmHg 39%
    10:00 +8°C° 0 mm 1 mps 692 mmHg 37%
    11:00 +9°C° 0 mm 1 mps 692 mmHg 35%
    12:00 +10°C° 0 mm 1 mps 691 mmHg 34%
    13:00 +10°C° 0 mm 1 mps 691 mmHg 33%
    14:00 +10°C° 0 mm 1 mps 690 mmHg 32%
    15:00 +10°C° 0 mm 1 mps 690 mmHg 32%
    16:00 +9°C° 0 mm 1 mps 690 mmHg 36%
    17:00 +8°C° 0 mm 1 mps 690 mmHg 40%
    18:00 +5°C° 0 mm 0 mps 690 mmHg 44%
    19:00 +5°C° 0 mm 0 mps 691 mmHg 46%
    20:00 +4°C° 0 mm 0 mps 691 mmHg 48%
    21:00 +4°C° 0 mm 0 mps 691 mmHg 50%
    22:00 +4°C° 0 mm 0 mps 691 mmHg 52%
    23:00 +3°C° 0 mm 0 mps 691 mmHg 54%

    19 November, Tuesday

    Time Temperature Precipitation Wind Pressure Humidity
    00:00 +3°C° 0 mm 0 mps 690 mmHg 55%
    01:00 +3°C° 0 mm 0 mps 690 mmHg 57%
    02:00 +2°C° 0 mm 0 mps 690 mmHg 59%
    03:00 +2°C° 0 mm 0 mps 690 mmHg 60%
    04:00 +2°C° 0 mm 0 mps 690 mmHg 61%
    05:00 +3°C° 0 mm 1 mps 690 mmHg 61%
    06:00 +2°C° 0 mm 1 mps 690 mmHg 61%
    07:00 +4°C° 0 mm 1 mps 690 mmHg 55%
    08:00 +6°C° 0 mm 1 mps 690 mmHg 48%
    09:00 +6°C° 0 mm 0 mps 691 mmHg 41%
    10:00 +8°C° 0 mm 1 mps 690 mmHg 39%
    11:00 +10°C° 0 mm 1 mps 690 mmHg 36%
    12:00 +11°C° 0 mm 1 mps 689 mmHg 33%
    13:00 +11°C° 0 mm 1 mps 689 mmHg 32%
    14:00 +11°C° 0 mm 1 mps 689 mmHg 31%
    15:00 +12°C° 0 mm 1 mps 688 mmHg 30%
    16:00 +11°C° 0 mm 1 mps 688 mmHg 33%
    17:00 +10°C° 0 mm 1 mps 689 mmHg 36%
    18:00 +8°C° 0 mm 0 mps 689 mmHg 39%
    19:00 +8°C° 0 mm 1 mps 689 mmHg 41%
    20:00 +7°C° 0 mm 1 mps 689 mmHg 42%
    21:00 +7°C° 0 mm 1 mps 689 mmHg 44%
    22:00 +6°C° 0 mm 1 mps 689 mmHg 46%
    23:00 +6°C° 0 mm 1 mps 689 mmHg 48%
    Show more